TimePDT,TemperatureF,Dew PointF,Humidity,Sea Level PressureIn,VisibilityMPH,Wind Direction,Wind SpeedMPH,Gust SpeedMPH,PrecipitationIn,Events,Conditions,WindDirDegrees,DateUTC
12:54 AM,77.0,35.1,22,29.93,10.0,North,10.4,-,N/A,,Clear,10,2012-10-04 07:54:00
1:54 AM,75.9,37.0,24,29.93,10.0,NNE,8.1,-,N/A,,Clear,20,2012-10-04 08:54:00
2:54 AM,75.0,37.9,26,29.94,10.0,NNE,11.5,-,N/A,,Clear,30,2012-10-04 09:54:00
3:54 AM,73.9,37.0,26,29.94,10.0,North,10.4,-,N/A,,Clear,10,2012-10-04 10:54:00
4:54 AM,75.0,34.0,22,29.95,10.0,NNE,8.1,-,N/A,,Clear,20,2012-10-04 11:54:00
5:54 AM,73.0,34.0,24,29.96,10.0,North,4.6,-,N/A,,Clear,10,2012-10-04 12:54:00
6:54 AM,68.0,43.0,40,29.99,10.0,SSE,4.6,-,N/A,,Clear,160,2012-10-04 13:54:00
7:54 AM,68.0,43.0,40,30.00,10.0,ESE,4.6,-,N/A,,Clear,120,2012-10-04 14:54:00
8:54 AM,75.0,43.0,32,30.02,10.0,SE,5.8,-,N/A,,Clear,130,2012-10-04 15:54:00
9:54 AM,78.1,41.0,27,30.03,10.0,SE,5.8,-,N/A,,Clear,140,2012-10-04 16:54:00
10:54 AM,81.0,43.0,26,30.04,10.0,Variable,4.6,-,N/A,,Clear,0,2012-10-04 17:54:00
11:54 AM,87.1,37.0,17,30.03,10.0,NNW,8.1,-,N/A,,Clear,330,2012-10-04 18:54:00
12:54 PM,88.0,39.0,18,30.01,10.0,West,4.6,-,N/A,,Clear,260,2012-10-04 19:54:00
1:54 PM,89.1,41.0,19,29.99,10.0,NW,5.8,16.1,N/A,,Clear,310,2012-10-04 20:54:00
2:54 PM,91.0,37.9,15,29.97,10.0,Variable,5.8,-,N/A,,Clear,0,2012-10-04 21:54:00
3:54 PM,90.0,39.9,17,29.96,10.0,NW,11.5,-,N/A,,Clear,310,2012-10-04 22:54:00
4:54 PM,89.1,39.0,17,29.95,10.0,NNW,9.2,-,N/A,,Clear,330,2012-10-04 23:54:00
5:54 PM,88.0,39.0,18,29.96,10.0,North,4.6,-,N/A,,Clear,350,2012-10-05 00:54:00
6:54 PM,82.0,41.0,23,29.96,10.0,Calm,Calm,-,N/A,,Clear,0,2012-10-05 01:54:00
7:54 PM,78.1,39.9,25,29.98,10.0,NNE,4.6,-,N/A,,Clear,20,2012-10-05 02:54:00
8:54 PM,73.0,41.0,31,30.00,10.0,West,5.8,-,N/A,,Clear,270,2012-10-05 03:54:00
9:54 PM,73.0,48.0,41,30.01,10.0,North,6.9,-,N/A,,Clear,350,2012-10-05 04:54:00
10:54 PM,70.0,46.0,42,30.03,10.0,NNW,3.5,-,N/A,,Clear,340,2012-10-05 05:54:00
11:54 PM,69.1,48.9,49,30.04,10.0,NW,5.8,-,N/A,,Clear,320,2012-10-05 06:54:00